Miscellaneous Local Product
Issued by NWS North Platte, NE

Home | Current Version | Previous Version | Text Only | Print | Product List | Glossary On
Versions: 1 2 3 4 5 6 7 8 9 10 11 12 13 14 15 16 17 18 19 20 21 22 23 24 25 26 27 28 29 30 31 32 33 34 35 36 37 38 39 40 41 42 43 44 45 46 47 48 49 50
000
AXUS43 KLBF 302110
MISLBF


WESTERN AND NORTH CENTRAL NEBRASKA HOURLY WEATHER ROUNDUP
NATIONAL WEATHER SERVICE NORTH PLATTE NE
400 PM CDT TUE JUN 30 2015

***STATIONS NOT REPORTING VARIABLES SUCH AS SKY/WEATHER OR
PRESSURE ARE PROVIDED BY THE NEBRASKA DEPARTMENT OF
ROADS...RAWS...AND APRS NETWORKS...AND ARE NOT UNDER
NATIONAL WEATHER SERVICE QUALITY CONTROL***

...OBSERVATIONS IN AND NEAR THE EASTERN PANHANDLE OF NEBRASKA...

CITY           SKY/WX    TMP DP  RH WIND       PRES   REMARKS
PINE RIDGE     MOSUNNY   92  56  29 W8        29.90F HX  90
CHADRON        SUNNY     95  58  28 CALM      29.88F HX  94
ALLIANCE       MOSUNNY   93  51  23 W9        29.94F HX  90
SIDNEY         MOSUNNY   92  53  26 VRB7      29.99F
WHITECLAY        N/A     93  49  22 SW7         N/A
CRESCENT LAKE    N/A     94  48  20 W6          N/A  HX  90
BIG SPRINGS      N/A     94  55  26 W5          N/A  HX  92
$$

...OBSERVATIONS IN NORTH CENTRAL NEBRASKA...

CITY           SKY/WX    TMP DP  RH WIND       PRES   REMARKS
VALENTINE      CLOUDY    82  65  56 E12       29.89S
THEDFORD       CLOUDY    93  57  29 W6        29.89F HX  92
AINSWORTH      CLOUDY    82  65  57 E12       29.89F
O`NEILL        CLOUDY    80  63  56 E14       29.90F
ORD            CLOUDY    87  68  52 SE12      29.86F HX  90
BROKEN BOW     CLOUDY    89  65  44 SW6       29.88F HX  91
VALENTINE NWR    N/A     87  68  52 E9G16       N/A  HX  90
SPRINGVIEW       N/A     80  66  62 E6          N/A
HALSEY           N/A     94  57  28 S6          N/A  HX  92
BREWSTER         N/A     91  72  52 E8          N/A  HX  98
ROSE             N/A     95  79  59 SE15        N/A  HX 113
NEWPORT          N/A     80  68  67 E12         N/A
SARGENT          N/A     91  67  45 CALM        N/A  HX  94
CHAMBERS         N/A     84  67  55 S9          N/A
EWING            N/A     78  65  63 E6G13       N/A
$$

...OBSERVATIONS IN SOUTHWEST NEBRASKA AND FAR NORTHEAST COLORADO...

CITY           SKY/WX    TMP DP  RH WIND       PRES   REMARKS
WRAY           FAIR      99  45  15 SW6       29.95F HX  95
HOLYOKE        FAIR      99  52  20 S7        29.95F HX  96
IMPERIAL       SUNNY     99  50  19 SW10      29.91F HX  96
OGALLALA       MOSUNNY   97  55  24 SW10      29.91F HX  95
NORTH PLATTE   PTSUNNY   94  61  33 SW7       29.88F HX  94
MCCOOK         SUNNY     99  50  19 W7        29.88F HX  96
LEXINGTON      PTSUNNY   96  56  25 SW6       29.89F HX  94
PAXTON           N/A     96  56  26 W3          N/A  HX  94
GOTHENBURG       N/A     95  57  27 SW3         N/A  HX  93
CALLAWAY         N/A     89  67  47 S7          N/A  HX  91
$$

...NORTH PLATTE AREA...

CITY           SKY/WX    TMP DP  RH WIND       PRES   REMARKS
AIRPORT        PTSUNNY   94  61  33 SW7       29.88F HX  94
DOWNTOWN         N/A     99  62  29 CALM        N/A  HX 100
HILLCREST        N/A     94  57  28 W5          N/A  HX  92
$$

...SOME WEATHER OBSERVATIONS FROM AROUND THE REGION...

CITY           SKY/WX    TMP DP  RH WIND       PRES   REMARKS
DENVER         MOSUNNY   92  43  18 NE5       30.08F
LARAMIE        CLOUDY    81  41  24 N13       30.23F
CHEYENNE       CLOUDY    84  43  23 NW8       30.15F
SCOTTSBLUFF    MOSUNNY   98  48  18 VRB3      29.94F HX  94
RAPID CITY     PTSUNNY   83  70  64 NE14      29.91R
PIERRE         CLOUDY    76  66  71 E14       29.87F
WINNER         FAIR      79  60  52 SE15G24   29.88F
SIOUX FALLS    LGT RAIN  75  64  68 SE6       29.92S
OMAHA          LGT RAIN  75  69  81 N6        29.91R
GRAND ISLAND   CLOUDY    92  68  45 SE10      29.87F HX  96
KANSAS CITY    CLOUDY    86  66  51 E6        29.92F
WICHITA        MOSUNNY   99  58  25 SW9G17    29.89F HX  98
HAYS           MOSUNNY  102  48  16 SW17      29.88F HX  99
LIBERAL        SUNNY     93  54  26 S12       30.00F HX  91
GOODLAND       SUNNY     94  48  20 SW10      29.98F HX  90
$$



USA.gov is the U.S. government's official web portal to all federal, state and local government web resources and services.